Quick links : Home Page : Contact Us : Index : Site Map : Search Site : Ephemerides


(160326) 2003 NF7

Orbital Elements

The following orbital elements are taken from MPO124282
(160326) 2003 NF7
Epoch 2007 Oct. 27.0 TT = JDT 2454400.5                 MPC
M   7.22358              (2000.0)            P               Q
n   0.25807683     Peri.   24.97104     +0.98622088     +0.14910581
a   2.4432620      Node   326.21022     -0.16498079     +0.85440721
e   0.2399733      Incl.    7.40368     -0.01223602     +0.49775072
P   3.82           H   16.0           G   0.15           U   2
From 113 observations at 3 oppositions, 2003-2007, mean residual 0".51.
An explanation of the orbital elements is available.

These orbital elements are also available in forms suitable for loading into a number of popular planetarium-type software programs.


Ephemeris

The following ephemeris is at intervals of five days. A daily ephemeris covering the same time interval is also available.

Personalized ephemerides for this (and other) objects may be generated using the Minor Planet & Comet Ephemeris Service.

Date    TT    R. A. (2000) Decl.     Delta      r     Elong.  Phase     V
2008 08 22    07 54.75   +24 45.8    3.309    2.528    33.5    12.7    21.4
 
2008 12 10    09 55.82   +15 54.7    2.244    2.775   112.5    19.1    20.9
2008 12 15    09 56.09   +15 49.4    2.189    2.784   117.5    18.3    20.9
2008 12 20    09 55.69   +15 47.1    2.137    2.794   122.7    17.2    20.8
2008 12 25    09 54.61   +15 47.8    2.088    2.803   128.0    16.0    20.7
2008 12 30    09 52.83   +15 51.5    2.043    2.812   133.5    14.7    20.6
2009 01 04    09 50.36   +15 57.9    2.002    2.821   139.2    13.2    20.5
2009 01 09    09 47.25   +16 06.8    1.967    2.829   145.1    11.5    20.4
2009 01 14    09 43.53   +16 17.8    1.937    2.838   151.0     9.7    20.3
2009 01 19    09 39.27   +16 30.4    1.914    2.846   157.1     7.7    20.2
2009 01 24    09 34.56   +16 44.2    1.897    2.854   163.3     5.7    20.1
2009 01 29    09 29.51   +16 58.4    1.888    2.862   169.6     3.6    20.0
2009 02 03    09 24.25   +17 12.6    1.886    2.870   175.7     1.5    19.9
2009 02 08    09 18.93   +17 26.0    1.892    2.878   177.0     1.0    19.8
2009 02 13    09 13.67   +17 38.3    1.906    2.885   171.1     3.0    20.0
2009 02 18    09 08.63   +17 48.9    1.927    2.893   164.9     5.1    20.2
2009 02 23    09 03.92   +17 57.6    1.955    2.900   158.8     7.1    20.3
2009 02 28    08 59.65   +18 04.1    1.990    2.907   152.7     9.0    20.4
2009 03 05    08 55.91   +18 08.3    2.032    2.913   146.9    10.7    20.5
2009 03 10    08 52.78   +18 10.1    2.079    2.920   141.1    12.3    20.7
2009 03 15    08 50.27   +18 09.7    2.132    2.926   135.6    13.8    20.8
2009 03 20    08 48.43   +18 07.0    2.189    2.933   130.2    15.0    20.9

Back to Observable Critical-List Minor Planets

MPC

Valid HTML 4.01!